EW6434 Weather Reports


time (UTC)temp
F
wind
direction
speed
knots
gust
knots
rain 1hr
in
rain 24hr
in
rain mn
in
humidity
%
barometer
mb
20260905024509 55 62 0.0 0.0 0.00 0.00 0.00 71 1011.0
20260905023009 56 62 0.0 0.0 0.00 0.00 0.00 68 1010.5
20260905021509 57 62 0.0 0.0 0.00 0.00 0.00 66 1010.3
20260905020008 58 62 0.0 0.0 0.00 0.00 0.00 64 1010.4
20260905014507 59 62 0.0 0.0 0.00 0.00 0.00 61 1010.3
20260905013013 60 62 0.0 0.0 0.00 0.00 0.00 60 1010.0
20260905011507 62 62 0.0 0.0 0.00 0.00 0.00 56 1009.9
20260905010014 64 62 0.0 0.9 0.00 0.00 0.00 49 1009.8
20260905004507 65 63 0.0 1.7 0.00 0.00 0.00 47 1009.7
20260905003006 66 272 0.0 0.9 0.00 0.00 0.00 44 1009.5
20260905001505 68 69 0.0 3.5 0.00 0.00 0.00 44 1009.3
20260905000006 69 137 0.0 0.9 0.00 0.00 0.00 42 1009.1
20260904234504 70 73 0.0 2.6 0.00 0.00 0.00 39 1009.2
20260904233002 71 96 0.0 5.2 0.00 0.00 0.00 37 1009.3
20260904231501 72 53 0.0 5.2 0.00 0.00 0.00 36 1009.2
20260904230003 73 216 0.9 5.2 0.00 0.00 0.00 37 1009.3
20260904224605 72 131 0.9 5.2 0.00 0.00 0.00 35 1009.3
20260904223059 72 222 0.0 7.8 0.00 0.00 0.00 39 1009.3
20260904221606 73 222 0.0 2.6 0.00 0.00 0.00 39 1009.3
20260904220101 72 237 0.0 5.2 0.00 0.00 0.00 39 1009.5
20260904214556 72 162 0.0 3.5 0.00 0.00 0.00 38 1009.7
20260904213053 72 226 0.0 5.2 0.00 0.00 0.00 42 1009.9
20260904211551 73 128 0.0 5.2 0.00 0.00 0.00 39 1010.1
20260904210054 72 82 0.0 1.7 0.00 0.00 0.00 42 1010.5
20260904204545 69 112 0.0 6.1 0.00 0.00 0.00 46 1010.8
20260904203051 66 252 0.0 4.3 0.00 0.00 0.00 56 1011.1
20260904201544 67 329 0.0 6.1 0.00 0.00 0.00 45 1011.0
20260904200056 69 113 0.0 7.0 0.00 0.00 0.00 43 1011.1
20260904194543 67 105 0.9 7.0 0.00 0.00 0.00 48 1011.3
20260904193040 68 101 0.9 4.3 0.00 0.00 0.00 45 1011.3
20260904191539 69 19 1.7 8.7 0.00 0.00 0.00 44 1011.2
20260904190036 68 83 0.9 7.0 0.00 0.00 0.00 45 1011.5
20260904184537 67 160 0.9 6.1 0.00 0.00 0.00 51 1011.7
20260904183039 67 49 0.9 5.2 0.00 0.00 0.00 50 1011.7
20260904181530 66 56 0.9 4.3 0.00 0.00 0.00 54 1011.9
20260904180038 63 154 0.0 3.5 0.00 0.00 0.00 57 1012.4
20260904174527 62 85 0.0 2.6 0.00 0.00 0.00 59 1012.6
20260904173026 62 95 0.0 5.2 0.00 0.00 0.00 57 1012.6
20260904171525 64 84 0.9 7.0 0.00 0.00 0.00 52 1012.2
20260904170025 63 94 0.9 6.1 0.00 0.00 0.00 52 1012.3
20260904164523 64 44 1.7 7.0 0.00 0.00 0.00 52 1012.4
20260904163021 63 65 0.0 4.3 0.00 0.00 0.00 54 1012.4
20260904161517 62 108 0.0 3.5 0.00 0.00 0.00 57 1012.4
20260904160014 61 102 0.0 2.6 0.00 0.00 0.00 57 1012.6
20260904154512 60 146 0.9 3.5 0.00 0.00 0.00 56 1012.7
20260904153007 57 136 0.0 4.3 0.00 0.00 0.00 67 1012.6
20260904151502 54 153 0.0 0.9 0.00 0.00 0.00 80 1012.8
20260904150058 51 167 0.0 0.0 0.00 0.00 0.00 85 1012.9
20260904144555 49 167 0.0 0.0 0.00 0.00 0.00 86 1012.9
20260904143051 48 167 0.0 0.0 0.00 0.00 0.00 87 1012.9
20260904141555 48 162 0.0 0.0 0.00 0.00 0.00 88 1012.9
20260904140104 47 161 0.0 0.0 0.00 0.00 0.00 88 1012.9
20260904134609 47 139 0.0 0.0 0.00 0.00 0.00 89 1012.7
20260904133049 47 139 0.0 0.0 0.00 0.00 0.00 88 1012.5
20260904131544 47 139 0.0 0.0 0.00 0.00 0.00 88 1012.3
20260904130044 47 139 0.0 0.0 0.00 0.00 0.00 87 1012.1
20260904124543 47 139 0.0 0.0 0.00 0.00 0.00 87 1012.0
20260904123041 48 139 0.0 0.0 0.00 0.00 0.00 87 1011.9
20260904121549 48 139 0.0 0.0 0.00 0.00 0.00 86 1011.9
20260904120040 47 139 0.0 0.0 0.00 0.00 0.00 86 1011.7
20260904114542 47 139 0.0 0.0 0.00 0.01 0.00 86 1011.6
20260904113039 47 139 0.0 0.0 0.00 0.01 0.00 86 1011.6
20260904111541 47 139 0.0 0.0 0.00 0.01 0.00 86 1011.5
20260904110037 47 139 0.0 0.0 0.00 0.01 0.00 86 1011.6
20260904104536 46 139 0.0 0.0 0.00 0.01 0.00 86 1011.4
20260904103035 47 139 0.0 0.0 0.00 0.01 0.00 86 1011.2
20260904101535 46 139 0.0 0.0 0.00 0.01 0.00 86 1011.3
20260904100034 46 139 0.0 0.0 0.00 0.01 0.00 86 1011.3
20260904094548 46 139 0.0 0.0 0.00 0.01 0.00 86 1011.3
20260904093031 46 139 0.0 0.0 0.00 0.01 0.00 85 1011.4
20260904091530 46 139 0.0 0.0 0.00 0.01 0.00 84 1011.5
20260904090042 46 139 0.0 0.0 0.00 0.01 0.00 84 1011.6
20260904084528 47 139 0.0 0.0 0.00 0.01 0.00 84 1011.8
20260904083049 47 139 0.0 0.0 0.00 0.01 0.00 84 1011.8
20260904081531 47 139 0.0 0.0 0.00 0.01 0.00 83 1011.8
20260904080027 47 139 0.0 0.0 0.00 0.01 0.00 83 1012.0
20260904074522 47 139 0.0 0.0 0.00 0.01 0.00 83 1012.0
20260904073023 48 172 0.0 0.0 0.00 0.01 0.00 81 1011.9
20260904071519 48 172 0.0 0.0 0.00 0.01 0.00 81 1012.0
20260904070026 48 172 0.0 0.0 0.00 0.01 0.00 80 1012.0
20260904064518 48 172 0.0 0.0 0.00 0.01 0.00 81 1012.0
20260904063017 48 172 0.0 0.0 0.00 0.01 0.00 81 1012.0
20260904061522 48 172 0.0 0.0 0.00 0.01 0.00 81 1011.9
20260904060017 48 172 0.0 0.0 0.00 0.01 0.00 81 1011.9
20260904054513 47 172 0.0 0.0 0.00 0.01 0.01 81 1011.9
20260904053032 47 172 0.0 0.0 0.00 0.01 0.01 81 1011.9
20260904051522 47 172 0.0 0.0 0.00 0.01 0.01 81 1012.0
20260904050011 47 172 0.0 0.0 0.00 0.01 0.01 79 1012.0
20260904044511 48 172 0.0 0.0 0.00 0.01 0.01 78 1012.0
20260904043011 48 172 0.0 0.0 0.00 0.01 0.01 77 1012.0
20260904041510 49 172 0.0 0.0 0.00 0.01 0.01 76 1012.1
20260904040010 49 172 0.0 0.0 0.00 0.01 0.01 75 1012.0
20260904034510 50 172 0.0 0.0 0.00 0.01 0.01 73 1012.0
20260904033008 51 172 0.0 0.0 0.00 0.01 0.01 70 1012.0
20260904031508 52 172 0.0 0.0 0.00 0.01 0.01 69 1012.0
20260904030008 52 172 0.0 0.0 0.00 0.01 0.01 67 1011.9